Weather in Torrey Pines Park

United States     32°53′25″N   117°15′03″W
В апреле 2022 года жителям России запретили посещать сайт meteo.paraplan.net по решению Генеральной прокуратуры. Аудитория сайта уменьшилась в 10 раз. Владельцы сайта не видят смысла в поддержке погодного сервера в таких условиях. Сайт будет закрыт в октябре.
temp.,
°C
wind,
m/s
gust,
m/s
humid.,
%
clouds,
%
prec.,
mm/h
press.,
hPa
HPBL,
m
4 october, tue
tue423:00+19wnw21840 0.0 1014219
02:00+19w118716 0.0 1013208
05:00+19nw11870 0.0 1013142
08:00+20wnw11830 0.0 1014155
11:00+22wsw32732 0.0 1014352
14:00+23wsw437222 0.0 1013399
17:00+22sw327556 0.0 1012382
20:00+21wsw22798 0.0 1013239
5 october, wed
wed523:00+20wsw11820 0.0 1014151
02:00+20wsw11830 0.0 1013114
05:00+20wnw11840 0.0 101392
08:00+21wsw00800 0.0 1014125
11:00+23wsw32670 0.0 1014316
14:00+24wsw43671 0.0 1013359
17:00+23wsw227031 0.0 1013282
20:00+21sw22790 0.0 1014191
6 october, thu
thu623:00+21ssw11790 0.0 1015121
02:00+21wnw11800 0.0 101474
05:00+20wsw11800 0.0 101476
08:00+21w11760 0.0 101597
11:00+24wsw32630 0.0 1016317
14:00+24wsw33639 0.0 1015357
17:00+23w32655 0.0 1014258
20:00+21sw22743 0.0 1015174
7 october, fri
fri723:00+21sw11754 0.0 101681
02:00+21w01770 0.0 101548
05:00+20nnw11760 0.0 101419
08:00+22ssw11710 0.0 101545
11:00+25w22570 0.0 1015252
14:00+24wsw336010 0.0 1013316
17:00+23wsw226425 0.0 1013261
20:00+22sw11728 0.0 1014128
8 october, sat
sat823:00+21ssw22746 0.0 1015128
02:00+21sw22775 0.0 101578
05:00+21sw01787 0.0 101440
08:00+22nne00735 0.0 101556
11:00+25wsw32555 0.0 1015270
14:00+24wsw326594 0.3 1014347
17:00+22wsw227399 0.8 1014297
20:00+21sw237927 0.1 1016332